Regional Weather Roundup
Issued by NWS

Home | Current Version | Previous Version | Graphics & Text | Print | Product List | Glossary Off
Versions: 1 2 3 4 5 6 7 8 9 10 11 12 13 14 15 16 17 18 19 20 21 22 23 24 25 26 27 28 29 30 31 32 33 34 35 36 37 38 39 40 41 42 43 44 45 46 47 48 49 50

000
ASUS43 KMKX 230320
RWRWI

WISCONSIN REGIONAL WEATHER ROUNDUP
NATIONAL WEATHER SERVICE MILWAUKEE/SULLIVAN WI
900 PM CST WED FEB 22 2017

NOTE: "FAIR" INDICATES FEW OR NO CLOUDS BELOW 12,000 FEET WITH NO
SIGNIFICANT WEATHER AND/OR OBSTRUCTIONS TO VISIBILITY.

WIZ001-002-006>008-014>016-023>028-230400-
NORTHWEST WISCONSIN

CITY           SKY/WX    TMP DP  RH WIND       PRES   REMARKS
SUPERIOR ARPT  LGT SNOW  33  33  98 N6        29.73R WCI  28
ASHLAND        CLOUDY    35  34  96 N8        29.68R WCI  29
HAYWARD        LGT RAIN  37  34  89 N7        29.63R WCI  32
SIREN          CLOUDY    38  33  82 N13G20    29.69R WCI  30
CUMBERLAND     DRIZZLE   41  36  81 N12       29.62R
RICE LAKE      CLOUDY    44  42  95 NW6       29.62R
CHETEK         CLOUDY    42  41  97 NW3       29.59R
LADYSMITH      CLOUDY    43  42  95 NE6       29.58F THUNDER
EAU CLAIRE     CLOUDY    46  40  79 W6        29.57R
MENOMONIE      CLOUDY    47  44  88 W10       29.61R
NEW RICHMOND   PTCLDY    42  37  84 NW17      29.64R
OSCEOLA        CLOUDY    42  35  75 NW10G20   29.69R
$$

WIZ003>005-009-010-017-018-230400-
NORTH CENTRAL WISCONSIN

CITY           SKY/WX    TMP DP  RH WIND       PRES   REMARKS
MANITOWISH WTR RAIN      37  37 100 NE9       29.58S WCI  30
ARBOR VITAE    FOG       42  41  97 NE6         N/A  VSB 1
WOODRUFF       FOG       42  41  97 NE6         N/A  VSB 1
RHINELANDER    FOG       41  41 100 N5        29.55S VSB 1/4
EAGLE RIVER    FOG       39  39 100 N7        29.57R VSB 1/2 WCI  34
LAND O LAKES   CLOUDY    37  37 100 N9        29.60R WCI  30
PHILLIPS       CLOUDY    40  40 100 N8        29.56S THUNDER FOG
TOMAHAWK         N/A     39  38  94 CALM      29.56S FOG
MEDFORD        PTCLDY    35  34  96 CALM      29.55S FOG
MERRILL        NOT AVBL
$$

WIZ029-030-035-036-043>047-230400-
CENTRAL WISCONSIN

CITY           SKY/WX    TMP DP  RH WIND       PRES   REMARKS
WAUSAU         PTCLDY    41  37  86 CALM      29.55R
MOSINEE        CLEAR     43  39  87 CALM      29.56R
MARSHFIELD     CLEAR     42  38  85 W5        29.55R
STEVENS POINT  CLEAR     36  33  90 CALM      29.56R
WAUPACA        CLEAR     42  36  76 CALM      29.55R
WAUTOMA        CLEAR     38  35  89 CALM      29.55S
WISC RAPIDS    CLEAR     37  34  89 CALM      29.57R
CAMP DOUGLAS   PTCLDY    36  34  93 W3        29.57R
$$

WIZ011>013-019>022-031-037>040-048>050-230400-
NORTHEAST WISCONSIN

CITY           SKY/WX    TMP DP  RH WIND       PRES   REMARKS
ANTIGO         CLEAR     34  33  96 CALM      29.56R
SHAWANO        PTCLDY    43  37  78 CALM      29.54S
OCONTO         CLEAR     40  38  93 N3        29.54F
STURGEON BAY   PTCLDY    39  37  93 NW6       29.54S FOG     WCI  35
GREEN BAY      CLEAR     45  44  97 W3        29.52F
MANITOWOC      MOCLDY    41  39  93 E3        29.52F FOG
APPLETON       MOCLDY    50  39  66 VRB5      29.52S
CLINTONVILLE   CLEAR     43  36  75 CALM      29.54S
OSHKOSH        MOCLDY    50  43  77 CALM      29.52F
$$

WIZ032>034-041-042-053>061-230400-
SOUTHWEST WISCONSIN

CITY           SKY/WX    TMP DP  RH WIND       PRES   REMARKS
LA CROSSE      CLEAR     50  42  74 CALM      29.59R
SPARTA         CLEAR     35  33  93 CALM      29.60R
VIROQUA        CLEAR     47  43  84 W6        29.61R
BOSCOBEL       CLEAR     54  43  66 SW5       29.60R
PRAIRIE DU CHI CLEAR     50  42  74 CALM      29.63R
PLATTEVILLE    CLEAR     51  44  77 W8        29.61R
$$

WIZ056-057-062-063-064-067-068-230400-
SOUTH CENTRAL WISCONSIN

CITY           SKY/WX    TMP DP  RH WIND       PRES   REMARKS
REEDSBURG      CLEAR     51  42  71 W7        29.57R
BARABOO/DELLS  CLEAR     52  41  65 W5        29.56R
LONE ROCK      CLEAR     54  42  64 W7        29.58R
MINERAL POINT  CLEAR     54  43  66 W8        29.59R
MADISON        CLEAR     54  48  80 CALM      29.55R
MIDDLETON      CLEAR     53  44  72 W8        29.56S
WATERTOWN      CLEAR     56  52  86 SW14G20   29.54S
MONROE         CLEAR     54  46  76 SW13      29.58R
JANESVILLE     CLEAR     57  52  82 SW13      29.57S
$$

WIZ051-052-058>065-066-070>072-230400-
SOUTHEAST WISCONSIN

CITY           SKY/WX    TMP DP  RH WIND       PRES   REMARKS
MILWAUKEE      CLEAR     60  51  72 SW16G25   29.56F
WAUKESHA       CLEAR     55  50  82 S14G21    29.57S
MILWAUKEE/TIMM CLEAR     59  48  67 SW18G28   29.55F
RACINE         CLEAR     60  52  74 SW14      29.58S
KENOSHA        CLEAR     60  54  80 SW13G23   29.58S
FOND DU LAC    PTCLDY    52  42  69 CALM      29.52F
SHEBOYGAN      CLEAR     43  41  93 CALM      29.53S
WEST BEND      CLEAR     57  52  82 SW8       29.53S
JUNEAU         CLEAR     54  50  87 SW10      29.55S
$$

LSZ147-162-230400-
LAKE SUPERIOR

STATION/POSITION TIME  TEMP    WIND        PRES    WAVE
                       AIR SEA DIR/SP/G            HT/PER
                 (UTC) (F)     (DEG/KT/KT) (MB)    (FT/S)
$$

LMZ867-665-643>646-230400-
LAKE MICHIGAN

STATION/POSITION TIME  TEMP    WIND        PRES    WAVE
                       AIR SEA DIR/SP/G            HT/PER
                 (UTC) (F)     (DEG/KT/KT) (MB)    (FT/S)
$$

TC  - TEMPERATURE IN CELSIUS
VSB - VISIBILITY IN STATUTE MILES
WCI - WIND CHILL INDEX
HX  - HEAT INDEX





USA.gov is the U.S. government's official web portal to all federal, state and local government web resources and services.